Location: Newark
(25.4800°N, 85.7200°E)
Time: 19:10:13
(UTC+00:00)

Explorer 11/Cluster Stage 4 - Pass Details

Date: 19 August 2019
Orbit: 467 x 1260 km, 28.8° (Epoch: 21 September)

Event Time Altitude Azimuth Distance (km) Brightness Sun altitude
Rises 12:28:14 0° 279° (W) 3,446 13.0 3.8°
Reaches altitude 10° 12:31:21 10° 268° (W) 2,351 10.9 3.1°
Maximum altitude 12:35:58 28° 211° (SSW) 1,276 8.0 2.1°
Drops below altitude 10° 12:39:49 10° 152° (SSE) 1,936 8.2 1.3°
Sets 12:42:10 0° 139° (SE) 2,732 8.9 0.8°
